Tracking 28915 objects as of 29-May-2024
HD Live streaming from Space Station
objects crossing your sky now

STARLINK-30568

Track STARLINK-30568 now!
10-day predictions
STARLINK-30568 is classified as:


NORAD ID: 58051
Int'l Code: 2023-158A
Perigee: 565.0 km
Apogee: 567.4 km
Inclination: 43.0 °
Period: 95.8 minutes
Semi major axis: 6937 km
RCS: Unknown
Launch date: October 13, 2023
Source: United States (US)
Launch site: AIR FORCE EASTERN TEST RANGE (AFETR)
Your satellite tracking list
Your tracking list is empty




NASA's NSSDC Master Catalog

Two Line Element Set (TLE):
1 58051U 23158A   24150.50458222  .00000838  00000-0  77100-4 0  9996
2 58051  43.0040 318.1133 0001670 261.6584  98.4069 15.02542411 35872
Source of the keplerian elements: AFSPC